This is the latest recevied weather packets stored in our database for station/object WE3WEE. If no packets are shown the sender has not sent any weather packets the latest 10 day(s).
| Time | Temp. | Humidity | Pressure | Rain* | Wind** | Luminosity | Snow |
|---|---|---|---|---|---|---|---|
| 1777893327 | 6.67° C | 76% | 1013.8 hPa | 0 mm | - | - | - |
| 1777893022 | 6.11° C | 80% | 1013.8 hPa | 0 mm | - | - | - |
| 1777892720 | 5.56° C | 78% | 1012.8 hPa | 0 mm | - | - | - |
| 1777892416 | 4.44° C | 79% | 1012.8 hPa | 0 mm | - | - | - |
| 1777892112 | 3.89° C | 84% | 1012.8 hPa | 0 mm | - | - | - |
| 1777891809 | 3.33° C | 85% | 1012.8 hPa | 0 mm | - | - | - |
| 1777891506 | 2.78° C | 84% | 1012.8 hPa | 0 mm | - | - | - |
| 1777891202 | 2.22° C | 87% | 1012.8 hPa | 0 mm | - | - | - |
| 1777890896 | 2.22° C | 88% | 1013.8 hPa | 0 mm | - | - | - |
| 1777890592 | 1.67° C | 88% | 1013.8 hPa | 0 mm | - | - | - |
| 1777890287 | 2.22° C | 88% | 1013.8 hPa | 0 mm | - | - | - |
| 1777889984 | 2.22° C | 87% | 1012.8 hPa | 0 mm | - | - | - |
| 1777889682 | 2.22° C | 86% | 1012.8 hPa | 0 mm | - | - | - |
| 1777889379 | 1.67° C | 88% | 1012.8 hPa | 0 mm | - | - | - |
| 1777889077 | 1.67° C | 89% | 1012.8 hPa | 0 mm | - | - | - |
| 1777888773 | 1.67° C | 88% | 1012.8 hPa | 0 mm | - | - | - |
| 1777888470 | 2.22° C | 87% | 1012.8 hPa | 0 mm | - | - | - |
| 1777888166 | 2.22° C | 87% | 1012.8 hPa | 0 mm | - | - | - |
| 1777887864 | 2.22° C | 87% | 1012.8 hPa | 0 mm | - | - | - |
| 1777887561 | 2.22° C | 87% | 1012.8 hPa | 0 mm | - | - | - |
| 1777887256 | 2.22° C | 86% | 1012.8 hPa | 0 mm | - | - | - |
| 1777886952 | 2.78° C | 85% | 1012.8 hPa | 0 mm | - | - | - |
| 1777886648 | 2.78° C | 84% | 1012.8 hPa | 0 mm | - | - | - |
| 1777886346 | 2.78° C | 84% | 1012.8 hPa | 0 mm | - | - | - |
| 1777886043 | 2.78° C | 84% | 1012.8 hPa | 0 mm | - | - | - |
* Rain latest hour (hover to see other rain measurements)
** Current wind speed in m/s (hover to see current wind gust speed)